Location: Sobotiste
(48.7170°N, 17.4000°E)
Time: 08:47:13
(UTC+02:00)

YUBILEINY - Pass Details

Date: 12 March 2026
Orbit: 1477 x 1509 km, 82.5° (Epoch: 17 April)

Event Time Altitude Azimuth Distance (km) Brightness Sun altitude
Rises 19:34:34 0° 265° (W) 4,639 ? -17.7°
Reaches altitude 10° 19:40:04 10° 293° (WNW) 3,656 ? -18.6°
Maximum altitude 19:43:28 13° 317° (NW) 3,456 ? -19.1°
Drops below altitude 10° 19:46:53 10° 340° (NNW) 3,652 ? -19.7°
Sets 19:52:25 0° 8° (N) 4,628 ? -20.5°
